KLEMETTI Weather Reports


time (UTC)temp
F
wind
direction
speed
knots
gust
knots
rain 1hr
in
rain 24hr
in
rain mn
in
humidity
%
barometer
mb
20260507112728 46 275 9.6 14.8 0.00 0.00 0.00 70 1015.7
20260507110729 45 276 8.7 13.0 0.00 0.00 0.00 69 1015.6
20260507104728 48 228 9.6 15.6 0.00 0.00 0.00 60 1015.6
20260507102728 46 252 14.8 19.1 0.00 0.00 0.00 61 1015.5
20260507100728 48 237 13.0 19.1 0.00 0.00 0.00 57 1015.3
20260507094729 49 240 9.6 14.8 0.00 0.00 0.00 50 1015.2
20260507092729 47 238 10.4 14.8 0.00 0.00 0.00 54 1015.3
20260507090729 48 256 9.6 13.9 0.00 0.00 0.00 47 1015.4
20260507084728 46 220 9.6 15.6 0.00 0.00 0.00 43 1015.3
20260507082728 46 203 7.8 15.6 0.00 0.00 0.00 44 1015.4
20260507080728 46 139 5.2 11.3 0.00 0.00 0.00 44 1015.2
20260507074728 44 131 5.2 8.7 0.00 0.00 0.00 49 1015.1
20260507072728 43 108 5.2 8.7 0.00 0.00 0.00 52 1015.1
20260507070728 42 94 5.2 8.7 0.00 0.00 0.00 56 1015.3
20260507064728 42 101 4.3 7.0 0.00 0.00 0.00 57 1015.3
20260507062728 39 134 3.5 8.7 0.00 0.00 0.00 63 1015.3
20260507060728 39 150 4.3 10.4 0.00 0.00 0.00 66 1015.6
20260507054728 39 149 4.3 9.6 0.00 0.00 0.00 68 1015.3
20260507052728 38 189 4.3 11.3 0.00 0.00 0.00 69 1015.4
20260507050727 37 167 5.2 13.9 0.00 0.00 0.00 68 1015.2
20260507044728 36 156 6.1 9.6 0.00 0.00 0.00 70 1015.0
20260507042727 35 146 6.1 7.8 0.00 0.00 0.00 73 1014.8
20260507040729 35 154 5.2 7.8 0.00 0.00 0.00 77 1014.9
20260507034728 34 159 4.3 7.0 0.00 0.00 0.00 78 1014.8
20260507032728 34 161 3.5 6.1 0.00 0.00 0.00 79 1014.8
20260507030728 33 174 5.2 8.7 0.00 0.00 0.00 81 1014.8
20260507024727 32 164 5.2 7.8 0.00 0.00 0.00 83 1014.8
20260507022728 32 184 4.3 8.7 0.00 0.00 0.00 85 1014.7
20260507020727 30 173 7.0 9.6 0.00 0.00 0.00 88 1014.8
20260507014727 31 154 3.5 5.2 0.00 0.00 0.00 86 1014.8
20260507012727 31 163 4.3 7.0 0.00 0.00 0.00 85 1014.7
20260507010727 32 179 7.0 11.3 0.00 0.00 0.00 84 1014.8
20260507004727 33 175 8.7 12.2 0.00 0.00 0.00 82 1014.8
20260507002727 33 182 7.8 13.9 0.00 0.00 0.00 82 1014.6
20260507000727 33 176 9.6 13.0 0.00 0.00 0.00 82 1014.6
20260506234728 34 177 7.8 10.4 0.00 0.00 0.00 82 1014.5
20260506232727 35 193 6.1 9.6 0.00 0.00 0.00 81 1014.5
20260506230728 35 185 7.8 11.3 0.00 0.00 0.00 81 1014.5
20260506224726 35 185 7.0 13.0 0.00 0.00 0.00 79 1014.6
20260506222727 36 188 7.0 10.4 0.00 0.00 0.00 78 1014.5
20260506220727 35 179 7.0 10.4 0.00 0.00 0.00 82 1014.3
20260506214727 35 163 3.5 7.8 0.00 0.00 0.00 81 1014.2
20260506212727 36 181 3.5 5.2 0.00 0.00 0.00 78 1014.0
20260506210727 37 210 3.5 5.2 0.00 0.00 0.00 74 1013.9
20260506204726 38 203 3.5 5.2 0.00 0.00 0.00 73 1013.9
20260506202726 39 206 4.3 7.0 0.00 0.00 0.00 69 1013.8
20260506200727 40 200 7.0 11.3 0.00 0.00 0.00 62 1013.6
20260506194726 40 197 7.0 10.4 0.00 0.00 0.00 61 1013.6
20260506192726 41 211 7.8 12.2 0.00 0.00 0.00 61 1013.5
20260506190726 42 205 5.2 9.6 0.00 0.00 0.00 60 1013.4
20260506184725 42 204 5.2 9.6 0.00 0.00 0.00 58 1013.4
20260506182726 42 219 8.7 13.9 0.00 0.00 0.00 56 1013.2
20260506180726 43 223 9.6 14.8 0.00 0.00 0.00 55 1013.0
20260506174726 44 232 10.4 16.5 0.00 0.00 0.00 57 1012.9
20260506172725 44 228 11.3 20.0 0.00 0.00 0.00 55 1012.8
20260506170726 45 235 9.6 15.6 0.00 0.00 0.00 51 1012.6
20260506164725 45 232 11.3 19.1 0.00 0.00 0.00 50 1012.5
20260506162726 46 235 13.0 20.0 0.00 0.00 0.00 49 1012.4
20260506160725 46 230 11.3 17.4 0.00 0.00 0.00 50 1012.4
20260506154726 46 227 11.3 18.2 0.00 0.00 0.00 47 1012.3
20260506152726 47 228 13.9 20.0 0.00 0.00 0.00 47 1012.3
20260506150725 47 232 13.0 20.0 0.00 0.00 0.00 47 1012.2
20260506144724 47 234 13.0 19.1 0.00 0.00 0.00 47 1012.2
20260506142725 47 222 13.9 21.7 0.00 0.00 0.00 48 1012.3
20260506140724 47 233 13.9 20.9 0.00 0.00 0.00 47 1012.2
20260506134725 47 241 12.2 18.2 0.00 0.00 0.00 47 1012.1
20260506132725 48 239 13.0 21.7 0.00 0.00 0.00 46 1012.0
20260506130724 47 239 13.9 20.0 0.00 0.00 0.00 48 1012.0
20260506124724 47 244 13.0 20.9 0.00 0.00 0.00 48 1012.0
20260506122724 47 241 14.8 21.7 0.00 0.00 0.00 47 1011.9
20260506120725 47 247 13.9 25.2 0.00 0.00 0.00 48 1011.8
20260506114725 46 254 14.8 20.9 0.00 0.00 0.00 46 1011.6